KC3VCX Weather Reports


time (UTC)temp
C
wind
direction
speed
KPH
gust
KPH
rain 1hr
cm
rain 24hr
cm
rain mn
cm
humidity
%
barometer
mb
20260509200504 17 207 3.2 4.8 0.00 0.51 0.51 65 1010.3
20260509200001 17 142 3.2 4.8 0.00 0.51 0.51 65 1010.3
20260509195455 17 156 3.2 4.8 0.00 0.51 0.51 67 1010.4
20260509194955 17 138 6.4 9.7 0.00 0.51 0.51 67 1010.5
20260509194451 16 185 6.4 9.7 0.00 0.51 0.51 67 1010.4
20260509193948 16 141 6.4 6.4 0.00 0.51 0.51 67 1010.5
20260509193448 17 89 3.2 4.8 0.00 0.51 0.51 65 1010.7
20260509192944 16 203 11.3 12.9 0.00 0.51 0.51 67 1010.7
20260509192441 16 129 6.4 11.3 0.00 0.51 0.51 68 1010.7
20260509191936 17 174 1.6 3.2 0.00 0.51 0.51 68 1010.9
20260509191432 17 104 3.2 3.2 0.00 0.51 0.51 67 1010.8
20260509190928 16 287 3.2 4.8 0.00 0.51 0.51 68 1011.0
20260509190425 17 349 6.4 11.3 0.00 0.51 0.51 66 1011.0
20260509185923 16 36 4.8 6.4 0.00 0.51 0.51 71 1010.8
20260509185420 16 96 3.2 3.2 0.00 0.51 0.51 69 1011.2
20260509184917 16 143 3.2 4.8 0.00 0.51 0.51 70 1011.1
20260509184414 16 195 6.4 9.7 0.00 0.51 0.51 72 1011.1
20260509183911 15 226 3.2 4.8 0.00 0.51 0.51 72 1011.2
20260509183405 15 158 4.8 4.8 0.00 0.51 0.51 73 1011.1
20260509182901 15 112 1.6 3.2 0.00 0.51 0.51 75 1011.2
20260509182358 15 145 4.8 4.8 0.00 0.51 0.51 74 1011.4
20260509181856 15 199 3.2 3.2 0.00 0.51 0.51 77 1011.2
20260509181353 15 217 4.8 9.7 0.00 0.51 0.51 76 1011.5
20260509180851 13 101 3.2 4.8 0.00 0.51 0.51 76 1011.1
20260509180346 13 314 1.6 3.2 0.00 0.51 0.51 80 1011.4
20260509175843 13 159 0.0 1.6 0.00 0.51 0.51 80 1011.4
20260509175339 13 184 6.4 6.4 0.00 0.51 0.51 78 1011.2
20260509174835 13 9 3.2 4.8 0.00 0.51 0.51 79 1011.3
20260509174331 14 327 4.8 4.8 0.00 0.51 0.51 78 1011.3
20260509173827 15 146 3.2 3.2 0.00 0.51 0.51 78 1011.2
20260509173323 14 122 1.6 3.2 0.00 0.51 0.51 78 1011.1
20260509172819 14 264 4.8 4.8 0.00 0.51 0.51 78 1011.4
20260509172316 13 160 1.6 3.2 0.00 0.51 0.51 81 1011.2
20260509171812 13 15 3.2 3.2 0.00 0.51 0.51 80 1010.9
20260509171308 14 73 3.2 4.8 0.00 0.51 0.51 80 1011.1
20260509170805 13 1 3.2 4.8 0.00 0.51 0.51 81 1011.2
20260509170300 15 95 3.2 4.8 0.00 0.51 0.51 79 1011.1
20260509165800 14 122 1.6 3.2 0.00 0.51 0.51 84 1011.2
20260509165255 13 170 4.8 9.7 0.00 0.51 0.51 85 1011.1
20260509164751 13 217 9.7 12.9 0.00 0.51 0.51 85 1011.0
20260509164241 13 148 6.4 11.3 0.00 0.51 0.51 87 1011.0
20260509163738 13 60 1.6 1.6 0.00 0.51 0.51 88 1011.0
20260509163234 12 240 9.7 12.9 0.00 0.51 0.51 89 1011.1
20260509162733 12 312 8.0 12.9 0.00 0.51 0.51 90 1011.1
20260509162222 12 154 1.6 3.2 0.00 0.51 0.51 91 1011.2
20260509161718 11 84 3.2 4.8 0.00 0.51 0.51 92 1011.0
20260509161214 11 161 4.8 4.8 0.00 0.51 0.51 92 1011.1
20260509160709 11 162 3.2 3.2 0.00 0.51 0.51 92 1011.0
20260509160206 11 108 1.6 3.2 0.13 0.51 0.51 92 1011.1
20260509155701 11 72 0.0 0.0 0.13 0.51 0.51 92 1011.4
20260509155157 11 115 1.6 1.6 0.00 0.48 0.48 92 1011.3
20260509154653 11 70 0.0 0.0 0.00 0.48 0.48 92 1011.2
20260509154151 11 355 1.6 1.6 0.00 0.48 0.48 92 1011.0
20260509153647 10 304 3.2 4.8 0.00 0.48 0.48 92 1010.9
20260509153144 11 222 0.0 3.2 0.00 0.48 0.48 92 1011.0
20260509152640 10 112 3.2 3.2 0.00 0.48 0.48 92 1011.1
20260509152137 11 63 3.2 4.8 0.00 0.48 0.48 92 1010.9
20260509151634 11 75 1.6 1.6 0.00 0.48 0.48 92 1011.0
20260509151131 11 154 3.2 4.8 0.00 0.48 0.48 92 1011.1
20260509150629 10 247 6.4 6.4 0.00 0.48 0.48 92 1011.2
20260509150127 10 79 3.2 3.2 0.00 0.48 0.48 92 1011.1
20260509145623 10 64 1.6 1.6 0.00 0.48 0.48 92 1010.9
20260509145118 10 244 3.2 3.2 0.00 0.48 0.48 92 1011.1
20260509144615 10 252 8.0 9.7 0.18 0.48 0.48 93 1011.0
20260509144112 10 263 3.2 4.8 0.18 0.48 0.48 93 1011.1
20260509143609 10 110 3.2 4.8 0.00 0.46 0.46 93 1010.9
20260509143107 10 83 3.2 3.2 0.00 0.46 0.46 93 1011.0
20260509142603 10 166 3.2 4.8 0.00 0.46 0.46 93 1011.1
20260509142059 10 213 3.2 3.2 0.00 0.46 0.46 93 1011.0
20260509141555 10 74 3.2 3.2 0.00 0.46 0.46 93 1011.0
20260509141052 10 48 1.6 1.6 0.00 0.46 0.46 93 1011.2
20260509140549 10 186 3.2 4.8 0.00 0.46 0.46 93 1011.1
20260509140047 10 329 1.6 3.2 0.00 0.46 0.46 93 1011.0
20260509135544 10 201 3.2 3.2 0.13 0.46 0.46 93 1011.1
20260509135042 10 215 6.4 11.3 0.13 0.46 0.46 93 1011.3
20260509134538 10 230 3.2 4.8 0.18 0.43 0.43 93 1011.3
20260509134036 10 231 3.2 3.2 0.18 0.43 0.43 93 1011.3
20260509133532 10 225 9.7 11.3 0.00 0.41 0.41 93 1011.3
20260509133030 10 118 3.2 3.2 0.13 0.41 0.41 93 1011.3
20260509132528 10 117 3.2 3.2 0.13 0.41 0.41 93 1011.4
20260509132026 10 359 1.6 1.6 0.18 0.38 0.38 93 1011.2
20260509131521 10 122 1.6 1.6 0.30 0.38 0.38 93 1011.5
20260509131018 10 126 1.6 1.6 0.13 0.36 0.36 93 1011.5
20260509130514 10 91 0.0 1.6 0.00 0.33 0.33 93 1011.5
20260509130011 10 183 3.2 3.2 0.00 0.33 0.33 93 1011.3
20260509125508 10 89 0.0 0.0 0.18 0.33 0.33 93 1011.5
20260509125003 10 64 1.6 3.2 0.18 0.33 0.33 93 1011.4
20260509124501 10 219 1.6 3.2 0.13 0.30 0.30 93 1011.4
20260509123958 10 104 1.6 1.6 0.30 0.30 0.30 92 1011.3
20260509123455 10 116 3.2 3.2 0.30 0.28 0.28 92 1011.6
20260509122951 10 48 3.2 6.4 0.13 0.25 0.25 92 1011.6
20260509122448 10 246 1.6 3.2 0.30 0.25 0.25 92 1011.7
20260509121945 10 84 0.0 1.6 0.18 0.23 0.23 92 1011.5
20260509121442 10 357 1.6 1.6 0.00 0.20 0.20 92 1011.4
20260509120940 10 118 1.6 1.6 0.18 0.20 0.20 92 1011.6
20260509120438 10 38 1.6 1.6 0.18 0.20 0.20 92 1011.6
20260509115935 10 204 1.6 3.2 0.13 0.18 0.18 92 1011.6
20260509115432 10 189 1.6 3.2 0.30 0.18 0.18 91 1011.6
20260509114929 10 197 3.2 3.2 0.30 0.15 0.15 91 1011.6
20260509114428 10 163 1.6 4.8 0.30 0.15 0.15 91 1011.6
20260509113927 10 30 0.0 1.6 0.18 0.10 0.10 91 1011.3
20260509113424 10 228 3.2 4.8 0.18 0.10 0.10 91 1011.5
20260509112921 10 247 3.2 4.8 0.00 0.08 0.08 90 1011.2
20260509112418 10 265 1.6 1.6 0.00 0.08 0.08 90 1011.3
20260509111915 10 228 1.6 3.2 0.00 0.08 0.08 90 1011.2
20260509111412 10 153 3.2 4.8 0.00 0.08 0.08 91 1011.2
20260509110910 10 95 1.6 1.6 0.00 0.08 0.08 91 1011.1
20260509110405 10 53 1.6 4.8 0.00 0.08 0.08 91 1011.0
20260509105904 10 192 6.4 12.9 0.00 0.08 0.08 90 1011.0
20260509105402 10 92 1.6 1.6 0.00 0.08 0.08 90 1011.1
20260509104858 10 211 3.2 3.2 0.00 0.08 0.08 90 1011.2
20260509104355 10 224 3.2 3.2 0.00 0.08 0.08 90 1011.2
20260509103853 9 160 1.6 3.2 0.13 0.08 0.08 90 1011.1
20260509103350 9 101 1.6 3.2 0.13 0.08 0.08 90 1011.0
20260509102849 9 280 3.2 3.2 0.00 0.05 0.05 90 1011.1
20260509102345 9 101 1.6 1.6 0.00 0.05 0.05 90 1011.3
20260509101841 9 79 0.0 0.0 0.00 0.05 0.05 90 1011.1
20260509101337 9 82 0.0 1.6 0.00 0.05 0.05 90 1011.2
20260509100836 9 200 3.2 4.8 0.00 0.05 0.05 90 1011.1
20260509100332 9 23 1.6 3.2 0.00 0.05 0.05 90 1011.0
20260509095829 9 130 1.6 1.6 0.00 0.05 0.05 89 1011.3
20260509095326 9 211 4.8 4.8 0.18 0.05 0.05 89 1011.4
20260509094823 9 62 0.0 1.6 0.18 0.05 0.05 89 1011.2
20260509094320 9 112 1.6 1.6 0.00 0.03 0.03 90 1011.3
20260509093818 9 234 1.6 4.8 0.00 0.03 0.03 90 1011.3
20260509093315 8 62 1.6 3.2 0.13 0.03 0.03 90 1011.5
20260509092813 8 276 3.2 4.8 0.13 0.03 0.03 91 1011.6
20260509092311 8 62 0.0 0.0 0.00 0.00 0.00 91 1011.6
20260509091809 8 88 0.0 0.0 0.00 0.00 0.00 92 1011.5
20260509091305 8 108 3.2 3.2 0.00 0.00 0.00 92 1011.5
20260509090803 8 57 0.0 0.0 0.00 0.00 0.00 92 1011.7
20260509090259 8 107 1.6 1.6 0.00 0.00 0.00 92 1011.7
20260509085757 8 91 0.0 0.0 0.00 0.00 0.00 92 1011.5
20260509085254 8 99 0.0 1.6 0.00 0.00 0.00 92 1011.4
20260509084750 8 89 0.0 0.0 0.00 0.00 0.00 92 1011.7
20260509084247 8 93 1.6 1.6 0.00 0.00 0.00 92 1011.6
20260509083745 8 94 0.0 0.0 0.00 0.00 0.00 92 1011.5
20260509083242 8 114 0.0 1.6 0.00 0.00 0.00 92 1011.4
20260509082738 8 248 3.2 3.2 0.00 0.00 0.00 92 1011.5
20260509082235 8 99 0.0 0.0 0.00 0.00 0.00 92 1011.3
20260509081732 8 99 0.0 0.0 0.00 0.00 0.00 92 1011.6
20260509081229 8 92 0.0 0.0 0.00 0.00 0.00 92 1011.7
20260509080727 8 336 1.6 1.6 0.00 0.00 0.00 92 1011.6
20260509080225 8 10 0.0 0.0 0.00 0.00 0.00 92 1011.5
20260509075723 8 10 0.0 0.0 0.00 0.00 0.00 91 1011.7
20260509075220 8 16 1.6 1.6 0.00 0.00 0.00 91 1011.5
20260509074717 8 35 0.0 0.0 0.00 0.00 0.00 91 1011.3
20260509074215 8 33 0.0 0.0 0.00 0.00 0.00 91 1011.5
20260509073711 8 44 0.0 0.0 0.00 0.00 0.00 91 1011.1
20260509073207 8 44 0.0 0.0 0.00 0.00 0.00 90 1011.3
20260509072704 8 44 0.0 0.0 0.00 0.00 0.00 90 1011.1
20260509072201 8 44 0.0 0.0 0.00 0.00 0.00 90 1011.1
20260509071657 8 44 0.0 0.0 0.00 0.00 0.00 90 1011.1
20260509071155 8 48 1.6 1.6 0.00 0.00 0.00 90 1011.0
20260509070651 8 79 0.0 0.0 0.00 0.00 0.00 90 1011.1
20260509070148 8 81 1.6 1.6 0.00 0.00 0.00 89 1011.1
20260509065644 8 80 0.0 0.0 0.00 0.00 0.00 89 1011.3
20260509065140 8 86 1.6 1.6 0.00 0.00 0.00 89 1011.5
20260509064637 8 81 0.0 1.6 0.00 0.00 0.00 89 1011.5
20260509064135 8 73 0.0 1.6 0.00 0.00 0.00 88 1011.6
20260509063632 8 88 0.0 0.0 0.00 0.00 0.00 89 1011.8
20260509063128 8 88 3.2 3.2 0.00 0.00 0.00 89 1011.8
20260509062626 8 72 0.0 0.0 0.00 0.00 0.00 89 1011.9
20260509062122 8 77 0.0 1.6 0.00 0.00 0.00 90 1011.9
20260509061619 8 75 3.2 4.8 0.00 0.00 0.00 91 1011.9
20260509061117 8 80 0.0 1.6 0.00 0.00 0.00 92 1012.2
20260509060614 8 113 4.8 6.4 0.00 0.00 0.00 92 1012.2
20260509060110 8 99 1.6 1.6 0.00 0.00 0.00 92 1012.3
20260509055605 8 99 1.6 1.6 0.00 0.00 0.00 92 1012.3
20260509055101 8 90 0.0 0.0 0.00 0.00 0.00 92 1012.3
20260509054558 8 89 1.6 1.6 0.00 0.00 0.00 93 1012.6
20260509054056 8 75 0.0 0.0 0.00 0.00 0.00 93 1012.6
20260509053555 8 99 0.0 0.0 0.00 0.00 0.00 93 1012.4
20260509053051 8 97 1.6 1.6 0.00 0.00 0.00 93 1012.7
20260509052549 8 93 0.0 1.6 0.00 0.00 0.00 93 1012.6
20260509052047 8 85 0.0 0.0 0.00 0.00 0.00 92 1012.7
20260509051545 8 85 0.0 0.0 0.00 0.00 0.00 92 1012.6
20260509051041 8 85 0.0 0.0 0.00 0.00 0.00 92 1012.8
20260509050538 8 90 0.0 0.0 0.00 0.00 0.00 92 1012.8
20260509050034 8 74 0.0 0.0 0.00 0.00 0.00 92 1012.7
20260509045532 8 75 0.0 0.0 0.00 0.00 0.00 92 1012.7
20260509045029 8 74 0.0 1.6 0.00 0.00 0.00 92 1012.9
20260509044526 8 57 0.0 0.0 0.00 0.00 0.00 92 1012.9
20260509044024 8 82 0.0 0.0 0.00 0.00 0.00 92 1012.7
20260509043520 8 77 1.6 1.6 0.00 0.00 0.00 92 1012.9
20260509043010 8 72 1.6 1.6 0.00 0.00 0.00 92 1013.0
20260509042506 8 70 0.0 1.6 0.00 0.00 0.00 92 1013.1
20260509042002 8 72 0.0 0.0 0.00 0.00 0.00 92 1013.3
20260509041459 8 71 0.0 0.0 0.00 0.00 0.00 92 1013.4
20260509040957 8 68 0.0 0.0 0.00 0.00 0.00 92 1013.5
20260509040455 8 80 0.0 0.0 0.18 0.00 0.00 91 1013.4
20260509035951 8 80 0.0 0.0 0.18 0.08 0.08 91 1013.7
20260509035448 8 70 0.0 0.0 0.00 0.05 0.05 91 1013.7
20260509034945 8 74 0.0 0.0 0.00 0.05 0.05 91 1013.8
20260509034443 8 75 0.0 0.0 0.00 0.05 0.05 91 1013.9
20260509033939 8 76 0.0 0.0 0.00 0.05 0.05 91 1013.8
20260509033437 8 76 0.0 0.0 0.00 0.05 0.05 91 1014.1
20260509032933 8 76 0.0 0.0 0.00 0.05 0.05 91 1014.1
20260509032431 8 76 0.0 0.0 0.00 0.05 0.05 90 1014.1
20260509031929 8 75 0.0 0.0 0.00 0.05 0.05 90 1014.0
20260509031426 8 76 0.0 0.0 0.00 0.05 0.05 90 1014.2
20260509030923 8 75 0.0 0.0 0.00 0.05 0.05 90 1014.2
20260509030421 9 76 0.0 0.0 0.00 0.05 0.05 90 1014.3
20260509025918 9 27 0.0 0.0 0.00 0.05 0.05 89 1014.4
20260509025413 9 26 1.6 1.6 0.13 0.05 0.05 89 1014.5
20260509024908 9 83 1.6 1.6 0.13 0.05 0.05 89 1014.4
20260509024405 9 40 1.6 1.6 0.00 0.03 0.03 89 1014.3
20260509023902 9 4 1.6 1.6 0.00 0.03 0.03 89 1014.4
20260509023359 9 78 0.0 1.6 0.00 0.03 0.03 89 1014.4
20260509022855 9 34 0.0 0.0 0.00 0.03 0.03 89 1014.5
20260509022353 9 353 1.6 3.2 0.00 0.03 0.03 89 1014.5
20260509021850 9 107 1.6 1.6 0.00 0.03 0.03 88 1014.2
20260509021347 9 117 1.6 3.2 0.00 0.03 0.03 88 1014.0
20260509020845 9 79 0.0 0.0 0.00 0.03 0.03 88 1014.0
20260509020343 9 126 0.0 1.6 0.00 0.03 0.03 88 1013.9
20260509015840 9 67 0.0 1.6 0.00 0.03 0.03 87 1013.9
20260509015338 10 71 0.0 0.0 0.00 0.03 0.03 87 1013.9
20260509014834 10 78 0.0 0.0 0.00 0.03 0.03 87 1013.9
20260509014326 10 30 0.0 1.6 0.00 0.03 0.03 86 1013.9
20260509013822 10 65 0.0 0.0 0.00 0.03 0.03 86 1013.9
20260509013319 10 57 0.0 0.0 0.18 0.03 0.03 86 1013.7
20260509012814 10 58 0.0 0.0 0.18 0.03 0.03 86 1013.7
20260509012311 10 72 0.0 0.0 0.00 0.00 0.00 85 1013.6
20260509011809 10 17 1.6 1.6 0.00 0.00 0.00 85 1013.5
20260509011306 10 93 1.6 3.2 0.00 0.00 0.00 86 1013.3
20260509010803 10 6 0.0 0.0 0.00 0.00 0.00 86 1013.2
20260509010300 10 30 0.0 1.6 0.00 0.00 0.00 85 1013.0
20260509005758 10 95 1.6 1.6 0.00 0.00 0.00 85 1013.0
20260509005256 10 28 0.0 0.0 0.00 0.00 0.00 85 1013.1
20260509004749 10 64 0.0 1.6 0.00 0.00 0.00 85 1013.1
20260509004246 10 349 1.6 3.2 0.00 0.00 0.00 85 1013.1
20260509003745 10 73 0.0 0.0 0.00 0.00 0.00 85 1013.0
20260509003237 10 106 0.0 0.0 0.00 0.00 0.00 85 1012.9
20260509002734 10 93 0.0 0.0 0.00 0.00 0.00 86 1012.8
20260509002231 10 93 0.0 0.0 0.00 0.00 0.00 85 1012.8
20260509001729 10 81 0.0 0.0 0.00 0.00 0.00 85 1013.0
20260509001224 10 48 0.0 0.0 0.00 0.00 0.00 85 1013.2
20260509000723 10 48 0.0 0.0 0.00 0.00 0.00 85 1013.1
20260509000220 10 27 1.6 1.6 0.00 0.00 0.00 85 1013.1
20260508235717 10 73 0.0 0.0 0.00 0.00 0.00 85 1013.0
20260508235213 10 77 0.0 0.0 0.00 0.00 0.00 84 1012.9
20260508234711 11 86 0.0 0.0 0.00 0.00 0.00 83 1013.0
20260508234206 11 108 1.6 1.6 0.00 0.00 0.00 82 1013.1
20260508233706 11 73 0.0 1.6 0.00 0.00 0.00 82 1013.3
20260508233203 11 51 0.0 0.0 0.00 0.00 0.00 81 1013.4
20260508232700 11 52 0.0 0.0 0.00 0.00 0.00 81 1013.3
20260508232156 11 52 0.0 0.0 0.00 0.00 0.00 81 1013.3
20260508231655 11 51 0.0 0.0 0.00 0.00 0.00 81 1013.1
20260508231151 11 51 1.6 1.6 0.00 0.00 0.00 81 1013.2
20260508230648 11 51 0.0 0.0 0.00 0.00 0.00 80 1013.1
20260508230144 11 51 0.0 0.0 0.00 0.00 0.00 79 1013.2
20260508225642 11 51 0.0 0.0 0.00 0.00 0.00 78 1013.1
20260508225138 11 51 0.0 0.0 0.00 0.00 0.00 78 1013.3
20260508224636 11 51 0.0 0.0 0.00 0.00 0.00 76 1013.3
20260508224134 11 51 0.0 0.0 0.00 0.00 0.00 77 1013.3
20260508223631 12 51 0.0 0.0 0.00 0.00 0.00 75 1013.4
20260508223128 12 51 0.0 0.0 0.00 0.00 0.00 74 1013.3
20260508222625 12 52 1.6 1.6 0.00 0.00 0.00 74 1013.3
20260508222122 12 52 1.6 1.6 0.00 0.00 0.00 74 1013.4
20260508221618 12 69 0.0 0.0 0.00 0.00 0.00 71 1013.2
20260508221114 12 61 0.0 0.0 0.00 0.00 0.00 71 1013.5
20260508220611 12 73 1.6 1.6 0.00 0.00 0.00 70 1013.4
20260508220108 12 94 1.6 1.6 0.00 0.00 0.00 70 1013.5
20260508215604 12 105 0.0 0.0 0.00 0.00 0.00 68 1013.4
20260508215101 12 105 0.0 0.0 0.00 0.00 0.00 69 1013.2
20260508214559 12 108 0.0 0.0 0.00 0.00 0.00 69 1013.2
20260508214055 12 109 0.0 1.6 0.00 0.00 0.00 67 1013.4
20260508213552 12 33 0.0 0.0 0.00 0.00 0.00 68 1013.2
20260508213048 12 26 1.6 1.6 0.00 0.00 0.00 69 1013.2
20260508212545 12 88 0.0 1.6 0.00 0.00 0.00 70 1013.4
20260508212041 12 106 0.0 0.0 0.00 0.00 0.00 70 1013.4
20260508211537 12 105 0.0 0.0 0.00 0.00 0.00 70 1013.4
20260508211033 12 105 0.0 0.0 0.00 0.00 0.00 71 1013.4
20260508210530 12 105 1.6 1.6 0.00 0.00 0.00 73 1013.4
20260508210028 12 114 0.0 0.0 0.00 0.00 0.00 70 1013.7
20260508205524 12 260 0.0 0.0 0.00 0.00 0.00 71 1013.7
20260508205020 12 66 0.0 0.0 0.00 0.00 0.00 73 1013.8
20260508204517 12 99 0.0 1.6 0.00 0.00 0.00 70 1013.7
20260508204013 12 70 0.0 0.0 0.00 0.00 0.00 72 1013.8
20260508203509 12 61 0.0 1.6 0.00 0.00 0.00 72 1013.9
20260508203005 11 312 6.4 6.4 0.00 0.00 0.00 71 1013.9
20260508202502 11 258 1.6 1.6 0.00 0.00 0.00 72 1013.9
20260508201959 11 75 0.0 0.0 0.00 0.00 0.00 73 1013.9
20260508201456 11 213 1.6 3.2 0.00 0.00 0.00 70 1014.1